Location: Passau
(48.5830°N, 13.4830°E)
Time: 18:18:22
(UTC+02:00)

SR - Pass Details

Date: 07 August 2021
Orbit: 580 x 874 km, 66.7° (Epoch: 16 September)

Event Time Altitude Azimuth Distance (km) Brightness Sun altitude
Rises 04:12:46 0° 159° (SSE) 3,432 ? -13.6°
Reaches altitude 10° 04:16:25 10° 136° (SE) 2,471 ? -13.2°
Maximum altitude 04:19:23 15° 105° (ESE) 2,135 ? -12.8°
Drops below altitude 10° 04:22:17 10° 73° (ENE) 2,405 ? -12.5°
Sets 04:25:44 0° 51° (NE) 3,282 ? -12.1°
